Tracking 17694 objects as of 27-May-2016
HD Live streaming from Space Station
objects crossing your sky now

THORAD AGENA D DEB

Track THORAD AGENA D DEB now!
10-day predictions


NORAD ID: 4935
Int'l Code: 1970-025GB
Perigee: 913.7 km
Apogee: 1,008.6 km
Inclination: 99.9 °
Period: 104.1 minutes
Semi major axis: 7332 km
RCS: 0.0346 m2 (small)
Launch date: April 8, 1970
Source: United States (US)
Launch site: AIR FORCE WESTERN TEST RANGE (AFWTR)

Note: This is SATELLITE DEBRIS
Your satellite tracking list
Your tracking list is empty





NASA's NSSDC Master Catalog

Two Line Element Set (TLE):
1 04935U 70025GB  16148.27387937  .00000240  00000-0  26103-3 0  9992
2 04935  99.8509  39.8167 0064676 258.7011 224.2508 13.82794791309365
Source of the keplerian elements: AFSPC

N2YO: 613